Weather Service Report


988 
ASUS44 KBMX 281510
RWRAL 
             
ALABAMA REGIONAL WEATHER ROUNDUP
NATIONAL WEATHER SERVICE BIRMINGHAM AL
1000 AM CDT FRI JUL 28 2017

NOTE: "FAIR" INDICATES FEW OR NO CLOUDS BELOW 12,000 FEET
WITH NO SIGNIFICANT WEATHER AND/OR OBSTRUCTIONS TO VISIBILITY.

THE REMARK "TC" DENOTES TEMPERATURE IN DEGREES CELSIUS.

ALZ001>011-014-016>018-020-281600-
NORTH ALABAMA
  
CITY           SKY/WX    TMP DP  RH WIND       PRES   REMARKS
MUSCLE SHOALS  LGT RAIN  77  73  87 SW9       29.91S                  
HUNTSVILLE     TSTM      74  74 100 S6        29.92F FOG              
DECATUR        RAIN      74  74 100 S8        29.92F                  
HALEYVILLE     NOT AVBL                                               
GADSDEN        RAIN      76  76 100 CALM      29.95S FOG              
$$
 
ALZ012-013-022-023-030>036-040>044-281600-
WEST CENTRAL ALABAMA
  
CITY           SKY/WX    TMP DP  RH WIND       PRES   REMARKS
TUSCALOOSA     CLOUDY    79  75  87 SW5       29.94S                  
DEMOPOLIS        N/A     82  71  69 SW7       29.95S                  
$$
 
ALZ015-024>026-033>036-041>044-281600-
CENTRAL ALABAMA
  
CITY           SKY/WX    TMP DP  RH WIND       PRES   REMARKS
BIRMINGHAM     LGT RAIN  79  73  82 SW8       29.97S                  
MONTGOMERY     SUNNY     90  70  51 W9        29.95S HX  95           
SHELBY CO ARPT CLOUDY    80  75  84 CALM      29.96S                  
MAXWELL AFB    SUNNY     86  75  68 NW3       29.95S HX  95           
GREENVILLE     FAIR      87  69  54 W10       29.97S HX  91           
SELMA          FAIR      86  73  66 W8        29.95S HX  93           
PRATTVILLE     FAIR      86  73  66 W8        29.95S HX  93           
BESSEMER       PTSUNNY   78  73  84 SW5       29.97S                  
TALLADEGA      LGT RAIN  77  76  95 MISG      29.96S                  
PELL CITY      SUNNY     79  79 100 CALM      29.96R FOG              
MARION         NOT AVBL                                               
SYLACAUGA      FAIR      81  78  90 W5        29.97S                  
$$
 
ALZ019-021-028-029-037-038-045>048-281600-
EAST CENTRAL ALABAMA
  
CITY           SKY/WX    TMP DP  RH WIND       PRES   REMARKS
ANNISTON       LGT RAIN  77  74  90 SW5       29.96S FOG              
ALEXANDER CITY MOSUNNY   83  74  75 W7        29.97S                  
AUBURN         SUNNY     85  76  74 W10       29.98S HX  94           
$$
 
ALZ051>064-281600-
SOUTHWEST ALABAMA
  
CITY           SKY/WX    TMP DP  RH WIND       PRES   REMARKS
MOBILE         PTSUNNY   87  72  60 W7        30.00R HX  93           
BROOKLEY FIELD SUNNY     89  75  63 W8        29.99S HX  99           
EVERGREEN      SUNNY     88  73  61 NW5       29.98S HX  95           
$$

ALZ049-050-065>069-281600-
SOUTHEAST ALABAMA
  
CITY           SKY/WX    TMP DP  RH WIND       PRES   REMARKS
DOTHAN         SUNNY     87  77  72 W8        30.00S HX  99           
OZARK          SUNNY     88  76  68 NW3       29.97R HX  98           
TROY           SUNNY     87  74  64 NW7       29.97S HX  95           
EUFAULA        FAIR      90  76  63 W7        29.94S HX 101           
$$
  

Return to Home page


Western Regional Climate Center, wrcc@dri.edu